W0WC Weather Reports


time (UTC)temp
C
wind
direction
speed
KPH
gust
KPH
rain 1hr
cm
rain 24hr
cm
rain mn
cm
humidity
%
barometer
mb
20260508013230 16 55 0.0 1.6 0.00 0.00 0.00 54 1014.2
20260508012728 16 34 0.0 0.0 0.00 0.00 0.00 53 1014.1
20260508012225 17 289 3.2 4.8 0.00 0.00 0.00 52 1014.0
20260508011723 17 72 3.2 3.2 0.00 0.00 0.00 52 1014.0
20260508011220 17 210 3.2 3.2 0.00 0.00 0.00 51 1014.0
20260508010716 17 201 3.2 4.8 0.00 0.00 0.00 50 1013.9
20260508010215 17 193 3.2 4.8 0.00 0.00 0.00 49 1014.0
20260508005712 18 75 1.6 3.2 0.00 0.00 0.00 48 1013.8
20260508005208 18 134 3.2 4.8 0.00 0.00 0.00 48 1014.2
20260508004703 18 42 4.8 4.8 0.00 0.00 0.00 47 1014.0
20260508004200 18 25 1.6 3.2 0.00 0.00 0.00 46 1013.8
20260508003657 18 232 6.4 9.7 0.00 0.00 0.00 45 1014.1
20260508003154 18 143 6.4 9.7 0.00 0.00 0.00 44 1013.7
20260508002650 18 241 6.4 9.7 0.00 0.00 0.00 44 1013.9
20260508002149 19 182 1.6 3.2 0.00 0.00 0.00 44 1013.7
20260508001643 19 214 3.2 4.8 0.00 0.00 0.00 43 1014.0
20260508001140 19 299 1.6 3.2 0.00 0.00 0.00 44 1014.0
20260508000636 20 233 1.6 3.2 0.00 0.00 0.00 42 1013.9
20260508000133 20 232 6.4 9.7 0.00 0.00 0.00 42 1014.1
20260507235630 20 359 0.0 0.0 0.00 0.00 0.00 42 1013.9
20260507235128 20 29 1.6 3.2 0.00 0.00 0.00 43 1014.0
20260507234624 20 181 6.4 9.7 0.00 0.00 0.00 41 1013.8
20260507234120 20 359 1.6 3.2 0.00 0.00 0.00 42 1013.9
20260507233617 20 344 3.2 4.8 0.00 0.00 0.00 42 1013.9
20260507233116 20 236 6.4 6.4 0.00 0.00 0.00 42 1013.9
20260507232612 20 201 6.4 12.9 0.00 0.00 0.00 41 1013.9
20260507232110 20 141 11.3 14.5 0.00 0.00 0.00 40 1014.1
20260507231606 20 212 9.7 16.1 0.00 0.00 0.00 41 1014.0
20260507231103 20 329 3.2 4.8 0.00 0.00 0.00 41 1014.0
20260507230559 20 319 3.2 3.2 0.00 0.00 0.00 41 1014.2
20260507230056 20 318 1.6 3.2 0.00 0.00 0.00 42 1014.4
20260507225551 20 349 3.2 4.8 0.00 0.00 0.00 42 1014.2
20260507225048 20 129 3.2 4.8 0.00 0.00 0.00 41 1014.5
20260507224543 20 348 3.2 4.8 0.00 0.00 0.00 42 1014.5
20260507224040 20 207 6.4 6.4 0.00 0.00 0.00 41 1014.5
20260507223536 20 134 6.4 9.7 0.00 0.00 0.00 40 1014.5
20260507223033 20 225 8.0 11.3 0.00 0.00 0.00 40 1014.8
20260507222531 20 3 6.4 11.3 0.00 0.00 0.00 42 1014.7
20260507222027 21 216 8.0 11.3 0.00 0.00 0.00 38 1014.8
20260507221523 21 199 3.2 4.8 0.00 0.00 0.00 40 1014.7
20260507221020 21 193 8.0 11.3 0.00 0.00 0.00 40 1014.7
20260507220518 21 4 0.0 0.0 0.00 0.00 0.00 41 1014.8
20260507220015 20 184 8.0 12.9 0.00 0.00 0.00 41 1014.6
20260507215511 20 270 8.0 11.3 0.00 0.00 0.00 40 1014.8
20260507215009 21 123 1.6 3.2 0.00 0.00 0.00 41 1015.0
20260507214505 21 329 3.2 3.2 0.00 0.00 0.00 42 1015.0
20260507214001 20 174 4.8 4.8 0.00 0.00 0.00 42 1015.1
20260507213458 20 210 6.4 11.3 0.00 0.00 0.00 40 1015.1
20260507212955 20 238 8.0 11.3 0.00 0.00 0.00 41 1015.2
20260507212450 20 151 9.7 11.3 0.00 0.00 0.00 40 1015.0
20260507211948 21 215 11.3 14.5 0.00 0.00 0.00 39 1015.1
20260507211444 21 211 9.7 14.5 0.00 0.00 0.00 42 1015.2
20260507210941 20 322 1.6 3.2 0.00 0.00 0.00 43 1015.3
20260507210438 20 12 4.8 6.4 0.00 0.00 0.00 41 1015.4
20260507205935 20 238 6.4 9.7 0.00 0.00 0.00 42 1015.6
20260507205432 20 335 4.8 9.7 0.00 0.00 0.00 40 1015.3
20260507204928 20 309 3.2 3.2 0.00 0.00 0.00 41 1015.7
20260507204424 20 233 4.8 6.4 0.00 0.00 0.00 43 1015.8
20260507203922 20 290 6.4 9.7 0.00 0.00 0.00 42 1015.9
20260507203420 19 164 6.4 11.3 0.00 0.00 0.00 43 1015.9
20260507202916 19 204 17.7 22.5 0.00 0.00 0.00 43 1016.2
20260507202413 20 96 6.4 9.7 0.00 0.00 0.00 41 1016.4
20260507201908 20 172 11.3 16.1 0.00 0.00 0.00 41 1016.3
20260507201404 20 206 4.8 11.3 0.00 0.00 0.00 43 1016.1
20260507200901 20 185 4.8 12.9 0.00 0.00 0.00 42 1016.4
20260507200356 20 317 3.2 4.8 0.00 0.00 0.00 43 1016.3
20260507195852 20 220 3.2 4.8 0.00 0.00 0.00 42 1016.6
20260507195350 20 263 9.7 14.5 0.00 0.00 0.00 41 1016.7
20260507194847 19 2 3.2 4.8 0.00 0.00 0.00 42 1016.7
20260507194344 20 346 9.7 14.5 0.00 0.00 0.00 41 1017.0
20260507193840 20 234 4.8 6.4 0.00 0.00 0.00 41 1016.8
20260507193337 20 235 3.2 3.2 0.00 0.00 0.00 42 1016.9
20260507192833 20 1 3.2 3.2 0.00 0.00 0.00 43 1016.9
20260507192330 20 198 4.8 6.4 0.00 0.00 0.00 42 1016.9
20260507191826 19 189 11.3 16.1 0.00 0.00 0.00 41 1017.0
20260507191322 18 306 9.7 12.9 0.00 0.00 0.00 42 1017.0
20260507190820 20 222 3.2 3.2 0.00 0.00 0.00 41 1016.9
20260507190318 19 279 3.2 3.2 0.00 0.00 0.00 43 1017.0
20260507185817 20 72 3.2 6.4 0.00 0.00 0.00 40 1017.0
20260507185313 19 171 3.2 4.8 0.00 0.00 0.00 41 1017.3
20260507184810 19 213 4.8 6.4 0.00 0.00 0.00 42 1017.2
20260507184308 20 310 1.6 1.6 0.00 0.00 0.00 43 1017.3
20260507183805 19 317 4.8 4.8 0.00 0.00 0.00 44 1017.3
20260507183302 19 268 6.4 9.7 0.00 0.00 0.00 42 1017.4
20260507182759 19 248 4.8 6.4 0.00 0.00 0.00 40 1017.4
20260507182254 19 344 3.2 4.8 0.00 0.00 0.00 43 1017.5
20260507181751 18 272 0.0 1.6 0.00 0.00 0.00 44 1017.3
20260507181247 19 172 6.4 9.7 0.00 0.00 0.00 41 1017.6
20260507180744 18 7 4.8 4.8 0.00 0.00 0.00 43 1017.5
20260507180241 18 180 9.7 11.3 0.00 0.00 0.00 40 1017.3
20260507175736 18 206 14.5 16.1 0.00 0.00 0.00 40 1017.9
20260507175234 18 250 6.4 9.7 0.00 0.00 0.00 41 1017.8
20260507174731 18 303 3.2 3.2 0.00 0.00 0.00 43 1017.9
20260507174229 18 146 8.0 11.3 0.00 0.00 0.00 41 1018.0
20260507173726 17 179 6.4 9.7 0.00 0.00 0.00 41 1018.0
20260507173223 18 180 6.4 6.4 0.00 0.00 0.00 44 1018.1
20260507172719 18 187 6.4 11.3 0.00 0.00 0.00 39 1018.4
20260507172216 18 7 3.2 3.2 0.00 0.00 0.00 42 1018.3
20260507171716 18 355 3.2 3.2 0.00 0.00 0.00 42 1018.6
20260507171214 18 231 6.4 12.9 0.00 0.00 0.00 41 1018.7
20260507170711 18 19 1.6 3.2 0.00 0.00 0.00 42 1018.6
20260507170208 18 64 4.8 6.4 0.00 0.00 0.00 41 1018.7
20260507165703 18 199 6.4 9.7 0.00 0.00 0.00 41 1018.9
20260507165200 17 261 4.8 4.8 0.00 0.00 0.00 40 1019.0
20260507164656 17 240 9.7 11.3 0.00 0.00 0.00 40 1019.0
20260507164153 17 184 8.0 9.7 0.00 0.00 0.00 42 1019.2
20260507163650 17 188 6.4 9.7 0.00 0.00 0.00 39 1019.0
20260507163148 17 165 4.8 6.4 0.00 0.00 0.00 42 1019.1
20260507162644 17 210 3.2 4.8 0.00 0.00 0.00 41 1018.9
20260507162140 17 230 9.7 12.9 0.00 0.00 0.00 40 1019.1
20260507161636 17 324 1.6 3.2 0.00 0.00 0.00 40 1019.0
20260507161133 17 231 1.6 3.2 0.00 0.00 0.00 41 1019.2
20260507160629 17 17 1.6 1.6 0.00 0.00 0.00 42 1018.9
20260507160126 17 191 8.0 11.3 0.00 0.00 0.00 40 1019.1
20260507155622 17 13 1.6 1.6 0.00 0.00 0.00 43 1019.1
20260507155119 17 59 3.2 9.7 0.00 0.00 0.00 40 1019.1
20260507154615 16 125 1.6 3.2 0.00 0.00 0.00 43 1019.0
20260507154112 16 212 6.4 6.4 0.00 0.00 0.00 42 1019.2
20260507153604 17 301 3.2 3.2 0.00 0.00 0.00 40 1019.1
20260507153101 16 334 3.2 4.8 0.00 0.00 0.00 43 1019.3
20260507152556 16 84 1.6 3.2 0.00 0.00 0.00 42 1019.2
20260507152052 16 15 0.0 1.6 0.00 0.00 0.00 43 1019.3
20260507151548 16 220 6.4 9.7 0.00 0.00 0.00 43 1019.4
20260507151045 16 203 8.0 12.9 0.00 0.00 0.00 44 1019.6
20260507150542 16 18 1.6 3.2 0.00 0.00 0.00 42 1019.5
20260507150039 16 58 1.6 1.6 0.00 0.00 0.00 43 1019.6
20260507145533 15 206 3.2 4.8 0.00 0.00 0.00 44 1019.5
20260507145032 15 224 8.0 9.7 0.00 0.00 0.00 43 1019.5
20260507144528 16 336 1.6 3.2 0.00 0.00 0.00 43 1019.4
20260507144026 15 31 1.6 1.6 0.00 0.00 0.00 45 1019.5
20260507143523 15 34 4.8 4.8 0.00 0.00 0.00 46 1019.4
20260507143020 15 111 3.2 4.8 0.00 0.00 0.00 47 1019.5
20260507142515 15 74 4.8 6.4 0.00 0.00 0.00 49 1019.4
20260507142013 15 244 6.4 6.4 0.00 0.00 0.00 48 1019.6
20260507141508 15 187 8.0 9.7 0.00 0.00 0.00 49 1019.5
20260507141007 14 212 6.4 6.4 0.00 0.00 0.00 49 1019.5
20260507140502 13 89 3.2 3.2 0.00 0.00 0.00 50 1019.6
20260507135959 13 111 6.4 9.7 0.00 0.00 0.00 49 1019.7
20260507135456 13 87 4.8 4.8 0.00 0.00 0.00 48 1019.6
20260507134953 13 53 3.2 4.8 0.00 0.00 0.00 48 1019.8
20260507134450 13 166 4.8 4.8 0.00 0.00 0.00 50 1019.6
20260507133946 12 97 4.8 6.4 0.00 0.00 0.00 50 1019.6
20260507133442 13 195 6.4 6.4 0.00 0.00 0.00 51 1019.7
20260507132941 12 56 3.2 3.2 0.00 0.00 0.00 52 1019.7
20260507132436 12 96 4.8 4.8 0.00 0.00 0.00 52 1019.6
20260507131933 12 178 3.2 4.8 0.00 0.00 0.00 52 1019.7
20260507131430 12 185 6.4 9.7 0.00 0.00 0.00 52 1019.7
20260507130927 11 142 3.2 3.2 0.00 0.00 0.00 54 1019.7
20260507130424 11 352 3.2 3.2 0.00 0.00 0.00 55 1019.5
20260507125923 11 197 3.2 4.8 0.00 0.00 0.00 55 1019.5
20260507125420 11 91 3.2 3.2 0.00 0.00 0.00 56 1019.5
20260507124918 10 139 3.2 4.8 0.00 0.00 0.00 59 1019.4
20260507124413 10 80 3.2 3.2 0.00 0.00 0.00 58 1019.3
20260507123912 10 98 3.2 3.2 0.00 0.00 0.00 62 1019.2
20260507123409 9 135 3.2 4.8 0.00 0.00 0.00 63 1019.4
20260507122906 9 105 4.8 4.8 0.00 0.00 0.00 65 1019.4
20260507122400 8 133 3.2 3.2 0.00 0.00 0.00 68 1019.3
20260507121857 8 109 3.2 4.8 0.00 0.00 0.00 72 1019.3
20260507121352 7 81 3.2 3.2 0.00 0.00 0.00 74 1019.4
20260507120850 7 43 0.0 1.6 0.00 0.00 0.00 78 1019.5
20260507120346 6 42 0.0 0.0 0.00 0.00 0.00 81 1019.3
20260507115842 6 27 0.0 0.0 0.00 0.00 0.00 83 1019.2
20260507115338 6 27 0.0 0.0 0.00 0.00 0.00 84 1019.3
20260507114834 6 27 0.0 0.0 0.00 0.00 0.00 85 1019.3
20260507114331 6 27 0.0 0.0 0.00 0.00 0.00 84 1019.1
20260507113829 6 27 0.0 0.0 0.00 0.00 0.00 84 1019.2
20260507113325 6 27 0.0 0.0 0.00 0.00 0.00 83 1019.3
20260507112823 6 27 0.0 0.0 0.00 0.00 0.00 82 1019.0
20260507112320 6 27 0.0 0.0 0.00 0.00 0.00 81 1019.1
20260507111818 6 27 0.0 0.0 0.00 0.00 0.00 80 1018.9
20260507111314 6 28 0.0 0.0 0.00 0.00 0.00 79 1019.0
20260507110810 7 27 0.0 0.0 0.00 0.00 0.00 80 1019.1
20260507110307 7 22 0.0 0.0 0.00 0.00 0.00 78 1019.1
20260507105804 7 28 0.0 0.0 0.00 0.00 0.00 77 1019.1
20260507105300 7 36 0.0 0.0 0.00 0.00 0.00 76 1018.9
20260507104757 7 49 1.6 1.6 0.00 0.00 0.00 75 1018.9
20260507104253 8 46 0.0 0.0 0.00 0.00 0.00 74 1018.8
20260507103750 8 50 1.6 1.6 0.00 0.00 0.00 74 1018.9
20260507103246 8 91 3.2 3.2 0.00 0.00 0.00 75 1018.7
20260507102742 8 53 1.6 1.6 0.00 0.00 0.00 75 1018.8
20260507102239 7 54 1.6 1.6 0.00 0.00 0.00 76 1018.7
20260507101735 7 54 1.6 1.6 0.00 0.00 0.00 77 1018.8
20260507101231 7 112 4.8 4.8 0.00 0.00 0.00 78 1018.7
20260507100728 7 59 1.6 3.2 0.00 0.00 0.00 84 1018.8
20260507100226 7 44 1.6 1.6 0.00 0.00 0.00 88 1018.9
20260507095724 7 23 0.0 0.0 0.00 0.00 0.00 90 1018.9
20260507095220 7 23 0.0 0.0 0.00 0.00 0.00 91 1018.9
20260507094717 7 19 0.0 0.0 0.00 0.00 0.00 91 1019.0
20260507094214 7 19 0.0 0.0 0.00 0.00 0.00 91 1019.0
20260507093711 7 19 0.0 0.0 0.00 0.00 0.00 92 1018.8
20260507093210 7 24 0.0 0.0 0.00 0.00 0.00 92 1018.9
20260507092706 7 24 0.0 0.0 0.00 0.00 0.00 93 1018.9
20260507092203 6 28 0.0 0.0 0.00 0.00 0.00 93 1018.6
20260507091659 6 25 0.0 0.0 0.00 0.00 0.00 94 1018.8
20260507091156 6 20 0.0 0.0 0.00 0.00 0.00 94 1018.8
20260507090651 6 23 0.0 0.0 0.00 0.00 0.00 94 1019.0
20260507090149 6 17 0.0 0.0 0.00 0.00 0.00 94 1019.0
20260507085645 6 11 0.0 0.0 0.00 0.00 0.00 95 1019.1
20260507085142 5 19 0.0 0.0 0.00 0.00 0.00 95 1019.0
20260507084639 5 26 0.0 0.0 0.00 0.00 0.00 95 1018.9
20260507084136 5 29 0.0 0.0 0.00 0.00 0.00 95 1019.0
20260507083633 5 27 0.0 0.0 0.00 0.00 0.00 95 1019.0
20260507083129 5 10 0.0 0.0 0.00 0.00 0.00 94 1019.1
20260507082625 5 10 0.0 0.0 0.00 0.00 0.00 94 1019.1
20260507082122 5 10 0.0 0.0 0.00 0.00 0.00 94 1019.1
20260507081618 5 10 0.0 0.0 0.00 0.00 0.00 94 1019.0
20260507081115 5 11 0.0 0.0 0.00 0.00 0.00 94 1019.1
20260507080611 5 16 0.0 0.0 0.00 0.00 0.00 94 1018.9
20260507080108 4 12 0.0 0.0 0.00 0.00 0.00 93 1019.2
20260507075603 5 12 0.0 0.0 0.00 0.00 0.00 93 1019.0
20260507075059 5 12 0.0 0.0 0.00 0.00 0.00 93 1019.0
20260507074556 5 12 0.0 0.0 0.00 0.00 0.00 92 1019.0
20260507074055 5 13 0.0 0.0 0.00 0.00 0.00 92 1018.8
20260507073550 5 13 0.0 0.0 0.00 0.00 0.00 92 1018.9
20260507073047 5 10 0.0 0.0 0.00 0.00 0.00 91 1019.1
20260507072545 5 9 0.0 0.0 0.00 0.00 0.00 91 1018.8
20260507072041 5 9 0.0 0.0 0.00 0.00 0.00 91 1019.1
20260507071539 5 9 0.0 0.0 0.00 0.00 0.00 91 1019.1
20260507071035 5 14 0.0 0.0 0.00 0.00 0.00 91 1019.2
20260507070533 5 18 0.0 0.0 0.00 0.00 0.00 91 1019.2
20260507070030 5 19 0.0 0.0 0.00 0.00 0.00 90 1019.3
20260507065526 5 20 0.0 0.0 0.00 0.00 0.00 90 1019.0
20260507065023 5 20 0.0 0.0 0.00 0.00 0.00 90 1019.2
20260507064521 5 18 0.0 0.0 0.00 0.00 0.00 89 1019.2
20260507064020 5 18 0.0 0.0 0.00 0.00 0.00 89 1019.1
20260507063516 5 18 0.0 0.0 0.00 0.00 0.00 89 1019.3
20260507063014 5 21 0.0 0.0 0.00 0.00 0.00 89 1019.3
20260507062510 5 16 0.0 0.0 0.00 0.00 0.00 89 1019.2
20260507062008 5 13 0.0 0.0 0.00 0.00 0.00 89 1019.6
20260507061505 5 11 0.0 0.0 0.00 0.00 0.00 89 1019.5
20260507061003 5 5 0.0 0.0 0.00 0.00 0.00 89 1019.5
20260507060500 5 4 0.0 0.0 0.00 0.00 0.00 89 1019.3
20260507055956 5 2 0.0 0.0 0.00 0.00 0.00 89 1019.5
20260507055452 5 14 0.0 0.0 0.00 0.00 0.00 88 1019.4
20260507054949 5 18 0.0 0.0 0.00 0.00 0.00 87 1019.4
20260507054445 6 18 0.0 0.0 0.00 0.00 0.00 86 1019.3
20260507053942 6 19 0.0 0.0 0.00 0.00 0.00 86 1019.4
20260507053440 6 19 0.0 0.0 0.00 0.00 0.00 85 1019.4
20260507052938 6 12 0.0 0.0 0.00 0.00 0.00 84 1019.2
20260507052435 6 12 0.0 0.0 0.00 0.00 0.00 84 1019.3
20260507051932 6 14 0.0 0.0 0.00 0.00 0.00 84 1019.2
20260507051430 6 25 0.0 0.0 0.00 0.00 0.00 84 1019.3
20260507050927 6 25 0.0 0.0 0.00 0.00 0.00 85 1019.4
20260507050423 6 20 0.0 0.0 0.00 0.00 0.00 85 1019.4
20260507045920 6 11 0.0 0.0 0.00 0.00 0.00 85 1019.4
20260507045416 6 10 0.0 0.0 0.00 0.00 0.00 85 1019.4
20260507044914 6 5 0.0 0.0 0.00 0.00 0.00 84 1019.4
20260507044410 6 10 0.0 0.0 0.00 0.00 0.00 82 1019.4
20260507043907 6 9 0.0 0.0 0.00 0.00 0.00 83 1019.6
20260507043403 6 9 0.0 0.0 0.00 0.00 0.00 82 1019.3
20260507042900 7 8 0.0 0.0 0.00 0.00 0.00 82 1019.2
20260507042356 7 359 0.0 0.0 0.00 0.00 0.00 81 1019.4
20260507041852 7 11 0.0 0.0 0.00 0.00 0.00 81 1019.3
20260507041349 7 12 0.0 0.0 0.00 0.00 0.00 80 1019.4
20260507040846 7 10 0.0 0.0 0.00 0.00 0.00 78 1019.3
20260507040342 7 15 0.0 0.0 0.00 0.00 0.00 76 1019.1
20260507035838 7 24 0.0 0.0 0.00 0.03 0.03 76 1019.2
20260507035333 8 20 0.0 0.0 0.00 0.03 0.03 74 1019.2
20260507034832 8 8 0.0 0.0 0.00 0.03 0.03 72 1019.1
20260507034328 8 6 0.0 0.0 0.00 0.03 0.03 70 1019.0
20260507033826 8 10 0.0 0.0 0.00 0.03 0.03 69 1019.0
20260507033324 8 11 0.0 0.0 0.00 0.03 0.03 69 1019.0
20260507032821 9 15 0.0 0.0 0.00 0.03 0.03 68 1019.0
20260507032317 9 10 0.0 0.0 0.00 0.03 0.03 67 1019.2
20260507031814 10 4 0.0 1.6 0.00 0.03 0.03 67 1018.8
20260507031310 10 0 1.6 1.6 0.00 0.03 0.03 67 1019.0
20260507030806 10 7 1.6 1.6 0.00 0.03 0.03 67 1019.1
20260507030305 9 8 0.0 0.0 0.00 0.03 0.03 69 1018.9
20260507025801 9 8 0.0 1.6 0.00 0.03 0.03 71 1019.0
20260507025258 8 11 0.0 1.6 0.00 0.03 0.03 73 1019.0
20260507024756 8 14 0.0 0.0 0.00 0.03 0.03 73 1018.9
20260507024253 8 9 0.0 0.0 0.00 0.03 0.03 76 1018.8
20260507023749 8 12 0.0 0.0 0.00 0.03 0.03 74 1019.0
20260507023246 9 13 0.0 0.0 0.00 0.03 0.03 69 1018.7
20260507022743 9 13 0.0 0.0 0.00 0.03 0.03 67 1018.6
20260507022239 10 13 0.0 0.0 0.00 0.03 0.03 65 1018.8
20260507021736 10 13 0.0 0.0 0.00 0.03 0.03 63 1018.5
20260507021231 10 13 0.0 0.0 0.00 0.03 0.03 61 1018.4
20260507020730 11 12 0.0 0.0 0.00 0.03 0.03 60 1018.6
20260507020226 11 12 0.0 0.0 0.00 0.03 0.03 59 1018.4
20260507015723 11 11 0.0 1.6 0.00 0.03 0.03 58 1018.4
20260507015221 11 12 0.0 0.0 0.00 0.03 0.03 58 1018.3
20260507014717 12 9 1.6 1.6 0.00 0.03 0.03 58 1018.2
20260507014214 12 12 0.0 1.6 0.00 0.03 0.03 56 1018.1